NJE927N EGPH-EDDF

Flight info

Callsign NJE927N
Flight time 1h 28m
Altitude 25000
Route TLA Y96 HAVEN/N0459F390 DCT OTBUN DCT AGPED DCT GODOS DCT AMGOD DCT SOGPO DCT DIXAT DIXAT1D
Aircraft CL60/M-SBDE1E2E3FGHIJ1J4J5J7M3RWXYZ/LB1V1D1

Departure

Time 2026-04-14 10:35
Airport Edinburgh Airport (EGPH)

Arrival

Time 2026-04-14 12:03
Airport Frankfurt Main Airport (EDDF)
Time Latitude Longitude Altitude Speed Heading
2026-04-14 09:40 55.94722 -3.34679 111 ft 0 kts 149°
2026-04-14 09:40 55.94722 -3.34678 111 ft 0 kts 149°
2026-04-14 09:41 55.94722 -3.34679 111 ft 0 kts 149°
2026-04-14 09:41 55.94722 -3.34678 111 ft 0 kts 149°
2026-04-14 09:41 55.94722 -3.34679 111 ft 0 kts 149°
2026-04-14 10:00 55.94722 -3.34678 111 ft 0 kts 149°
2026-04-14 10:02 55.94722 -3.34679 112 ft 0 kts 149°
2026-04-14 10:27 55.94722 -3.34678 112 ft 0 kts 149°
2026-04-14 10:28 55.94716 -3.34675 112 ft 2 kts 191°
2026-04-14 10:28 55.94730 -3.34710 112 ft 6 kts 332°
2026-04-14 10:28 55.94763 -3.34768 112 ft 7 kts 275°
2026-04-14 10:28 55.94801 -3.34865 111 ft 12 kts 300°
2026-04-14 10:29 55.94861 -3.35059 108 ft 21 kts 299°
2026-04-14 10:29 55.94937 -3.35307 108 ft 24 kts 300°
2026-04-14 10:29 55.95022 -3.35590 105 ft 26 kts 298°
2026-04-14 10:29 55.95100 -3.35809 103 ft 18 kts 304°
2026-04-14 10:30 55.95157 -3.35936 102 ft 12 kts 330°
2026-04-14 10:30 55.95218 -3.36018 102 ft 9 kts 278°
2026-04-14 10:30 55.95182 -3.36140 102 ft 13 kts 239°
2026-04-14 10:30 55.95129 -3.36297 102 ft 16 kts 239°
2026-04-14 10:31 55.95063 -3.36491 102 ft 19 kts 238°
2026-04-14 10:31 55.94985 -3.36721 101 ft 23 kts 239°
2026-04-14 10:31 55.94908 -3.36951 99 ft 19 kts 238°
2026-04-14 10:31 55.94835 -3.37165 102 ft 21 kts 238°
2026-04-14 10:32 55.94752 -3.37409 101 ft 24 kts 239°
2026-04-14 10:32 55.94662 -3.37675 102 ft 25 kts 239°
2026-04-14 10:32 55.94574 -3.37936 105 ft 24 kts 239°
2026-04-14 10:32 55.94489 -3.38185 109 ft 21 kts 239°
2026-04-14 10:33 55.94406 -3.38427 111 ft 23 kts 238°
2026-04-14 10:33 55.94328 -3.38663 112 ft 20 kts 239°
2026-04-14 10:33 55.94285 -3.38788 115 ft 7 kts 240°
2026-04-14 10:33 55.94299 -3.38878 115 ft 10 kts 326°
2026-04-14 10:34 55.94442 -3.38893 112 ft 19 kts 59°
2026-04-14 10:34 55.94661 -3.38252 105 ft 104 kts 58°
2026-04-14 10:34 55.95150 -3.36804 276 ft 157 kts 59°
2026-04-14 10:35 55.95734 -3.35050 881 ft 174 kts 61°
2026-04-14 10:35 55.96483 -3.33279 1573 ft 192 kts 48°
2026-04-14 10:35 55.97532 -3.31575 2120 ft 206 kts 44°
2026-04-14 10:35 55.98596 -3.29913 2659 ft 207 kts 45°
2026-04-14 10:36 55.99711 -3.28153 3230 ft 219 kts 45°
2026-04-14 10:36 56.00876 -3.26304 3813 ft 232 kts 45°
2026-04-14 10:36 56.02113 -3.24333 4427 ft 253 kts 45°
2026-04-14 10:36 56.03469 -3.22165 5124 ft 267 kts 44°
2026-04-14 10:37 56.04848 -3.19909 5806 ft 275 kts 49°
2026-04-14 10:37 56.05784 -3.16972 6010 ft 272 kts 80°
2026-04-14 10:37 56.05830 -3.13631 6009 ft 266 kts 99°
2026-04-14 10:37 56.05276 -3.10548 6010 ft 259 kts 125°
2026-04-14 10:38 56.04033 -3.08293 6082 ft 256 kts 143°
2026-04-14 10:38 56.02632 -3.06345 6303 ft 257 kts 143°
2026-04-14 10:38 56.01214 -3.04355 6562 ft 259 kts 143°
2026-04-14 10:38 55.99798 -3.02370 7016 ft 259 kts 144°
2026-04-14 10:39 55.98390 -3.00396 7680 ft 261 kts 144°
2026-04-14 10:39 55.96876 -2.98630 8435 ft 265 kts 162°
2026-04-14 10:39 55.95059 -2.98402 9200 ft 270 kts 196°
2026-04-14 10:39 55.93322 -2.99737 9965 ft 274 kts 209°
2026-04-14 10:40 55.91610 -3.01300 10702 ft 289 kts 210°
2026-04-14 10:40 55.89757 -3.02978 11440 ft 315 kts 210°
2026-04-14 10:40 55.87738 -3.04786 12181 ft 335 kts 209°
2026-04-14 10:40 55.85598 -3.06670 12822 ft 346 kts 209°
2026-04-14 10:41 55.83443 -3.08526 13447 ft 348 kts 209°
2026-04-14 10:41 55.81263 -3.10362 14071 ft 350 kts 208°
2026-04-14 10:41 55.79021 -3.12183 14711 ft 354 kts 208°
2026-04-14 10:41 55.76768 -3.13985 15334 ft 358 kts 208°
2026-04-14 10:42 55.74484 -3.15809 15959 ft 362 kts 208°
2026-04-14 10:42 55.72198 -3.17630 16582 ft 366 kts 208°
2026-04-14 10:42 55.69858 -3.19492 17216 ft 370 kts 207°
2026-04-14 10:42 55.67488 -3.21374 17847 ft 375 kts 208°
2026-04-14 10:43 55.65025 -3.22886 18471 ft 383 kts 196°
2026-04-14 10:43 55.62329 -3.23220 19108 ft 396 kts 180°
2026-04-14 10:43 55.59618 -3.22138 19742 ft 410 kts 162°
2026-04-14 10:43 55.57130 -3.19510 20390 ft 424 kts 142°
2026-04-14 10:44 55.55038 -3.15848 20990 ft 432 kts 136°
2026-04-14 10:44 55.52932 -3.11994 21614 ft 437 kts 137°
2026-04-14 10:44 55.50806 -3.08126 22254 ft 442 kts 136°
2026-04-14 10:44 55.48649 -3.04213 22889 ft 448 kts 136°
2026-04-14 10:45 55.46493 -3.00175 23480 ft 457 kts 131°
2026-04-14 10:45 55.44744 -2.95411 24022 ft 467 kts 120°
2026-04-14 10:45 55.43151 -2.90345 24609 ft 473 kts 120°
2026-04-14 10:45 55.41542 -2.85274 25248 ft 478 kts 120°
2026-04-14 10:46 55.39893 -2.80089 25877 ft 482 kts 120°
2026-04-14 10:46 55.38248 -2.74928 26628 ft 482 kts 120°
2026-04-14 10:46 55.36595 -2.69758 27414 ft 481 kts 120°
2026-04-14 10:46 55.34988 -2.64745 28178 ft 480 kts 120°
2026-04-14 10:47 55.33353 -2.59654 28892 ft 479 kts 120°
2026-04-14 10:47 55.31713 -2.54562 29547 ft 479 kts 120°
2026-04-14 10:47 55.30059 -2.49438 30174 ft 480 kts 120°
2026-04-14 10:47 55.28422 -2.44381 30748 ft 481 kts 120°
2026-04-14 10:48 55.26779 -2.39315 31279 ft 482 kts 120°
2026-04-14 10:48 55.25111 -2.34186 31776 ft 484 kts 121°
2026-04-14 10:48 55.23450 -2.29089 32226 ft 486 kts 121°
2026-04-14 10:48 55.21767 -2.23935 32671 ft 487 kts 121°
2026-04-14 10:49 55.20070 -2.18749 33109 ft 488 kts 120°
2026-04-14 10:49 55.18405 -2.13673 33536 ft 489 kts 120°
2026-04-14 10:49 55.16705 -2.08502 33925 ft 491 kts 120°
2026-04-14 10:49 55.14999 -2.03324 34298 ft 493 kts 120°
2026-04-14 10:50 55.13282 -1.98123 34661 ft 493 kts 120°
2026-04-14 10:50 55.11614 -1.92978 35070 ft 491 kts 119°
2026-04-14 10:50 55.10004 -1.87814 35520 ft 487 kts 118°
2026-04-14 10:50 55.08381 -1.82614 35945 ft 482 kts 119°
2026-04-14 10:51 55.06795 -1.77547 36432 ft 478 kts 119°
2026-04-14 10:51 55.05201 -1.72467 36894 ft 475 kts 119°
2026-04-14 10:51 55.03641 -1.67502 37347 ft 472 kts 120°
2026-04-14 10:51 55.02061 -1.62485 37719 ft 470 kts 119°
2026-04-14 10:52 55.00497 -1.57532 38001 ft 471 kts 120°
2026-04-14 10:52 54.98931 -1.52582 38244 ft 472 kts 119°
2026-04-14 10:52 54.97329 -1.47531 38516 ft 472 kts 120°
2026-04-14 10:52 54.95747 -1.42549 38762 ft 472 kts 119°
2026-04-14 10:53 54.94169 -1.37594 38998 ft 472 kts 119°
2026-04-14 10:53 54.90945 -1.27499 39041 ft 483 kts 120°
2026-04-14 10:54 54.87648 -1.17223 39049 ft 493 kts 120°
2026-04-14 10:54 54.84279 -1.06761 39049 ft 502 kts 120°
2026-04-14 10:55 54.80845 -0.96147 39064 ft 507 kts 120°
2026-04-14 10:55 54.77402 -0.85548 39054 ft 509 kts 120°
2026-04-14 10:56 54.73913 -0.74858 39047 ft 510 kts 120°
2026-04-14 10:56 54.70427 -0.64221 39058 ft 508 kts 120°
2026-04-14 10:57 54.66963 -0.53698 39067 ft 506 kts 120°
2026-04-14 10:57 54.63490 -0.43196 39058 ft 506 kts 120°
2026-04-14 10:58 54.59986 -0.32642 39065 ft 506 kts 121°
2026-04-14 10:58 54.56496 -0.22178 39070 ft 505 kts 120°
2026-04-14 10:59 54.53017 -0.11794 39062 ft 505 kts 120°
2026-04-14 10:59 54.49503 -0.01345 39066 ft 504 kts 120°
2026-04-14 11:00 54.45999 0.09023 39074 ft 504 kts 120°
2026-04-14 11:00 54.42477 0.19409 39084 ft 502 kts 120°
2026-04-14 11:01 54.38969 0.29703 39076 ft 502 kts 120°
2026-04-14 11:01 54.35451 0.39986 39088 ft 503 kts 120°
2026-04-14 11:02 54.31914 0.50282 39089 ft 503 kts 120°
2026-04-14 11:02 54.28373 0.60547 39100 ft 504 kts 120°
2026-04-14 11:03 54.24793 0.70876 39087 ft 503 kts 121°
2026-04-14 11:03 54.21240 0.81088 39103 ft 501 kts 121°
2026-04-14 11:04 54.17690 0.91251 39098 ft 501 kts 121°
2026-04-14 11:04 54.14125 1.01412 39123 ft 501 kts 121°
2026-04-14 11:05 54.10555 1.11547 39123 ft 500 kts 121°
2026-04-14 11:05 54.06982 1.21649 39122 ft 499 kts 121°
2026-04-14 11:06 54.03407 1.31717 39112 ft 500 kts 121°
2026-04-14 11:06 53.99828 1.41752 39115 ft 499 kts 121°
2026-04-14 11:07 53.96234 1.51790 39119 ft 498 kts 121°
2026-04-14 11:07 53.92633 1.61807 39119 ft 499 kts 121°
2026-04-14 11:08 53.89019 1.71818 39123 ft 499 kts 121°
2026-04-14 11:08 53.85416 1.81763 39126 ft 499 kts 122°
2026-04-14 11:09 53.81774 1.91771 39131 ft 499 kts 121°
2026-04-14 11:09 53.78155 2.01676 39133 ft 499 kts 122°
2026-04-14 11:10 53.72693 2.16554 39137 ft 498 kts 121°
2026-04-14 11:10 53.69037 2.26463 39130 ft 498 kts 121°
2026-04-14 11:11 53.65382 2.36330 39148 ft 497 kts 121°
2026-04-14 11:11 53.61722 2.46169 39145 ft 497 kts 121°
2026-04-14 11:12 53.58056 2.55988 39131 ft 497 kts 121°
2026-04-14 11:12 53.54384 2.65785 39139 ft 497 kts 122°
2026-04-14 11:13 53.50708 2.75552 39154 ft 496 kts 122°
2026-04-14 11:13 53.47035 2.85275 39153 ft 496 kts 122°
2026-04-14 11:14 53.43329 2.95047 39169 ft 495 kts 122°
2026-04-14 11:14 53.39636 3.04747 39154 ft 495 kts 122°
2026-04-14 11:15 53.35940 3.14418 39147 ft 495 kts 122°
2026-04-14 11:15 53.32256 3.24019 39155 ft 494 kts 122°
2026-04-14 11:16 53.28531 3.33632 39158 ft 494 kts 124°
2026-04-14 11:16 53.24044 3.42292 39163 ft 494 kts 138°
2026-04-14 11:17 53.18555 3.48941 39163 ft 491 kts 151°
2026-04-14 11:17 53.12597 3.54532 39150 ft 491 kts 152°
2026-04-14 11:18 53.06660 3.60080 39153 ft 491 kts 152°
2026-04-14 11:18 53.00872 3.66030 39153 ft 492 kts 144°
2026-04-14 11:19 52.96128 3.73437 39153 ft 493 kts 131°
2026-04-14 11:19 52.92213 3.82715 39155 ft 494 kts 121°
2026-04-14 11:20 52.88621 3.92292 39158 ft 493 kts 121°
2026-04-14 11:20 52.84975 4.01956 39160 ft 493 kts 121°
2026-04-14 11:21 52.81338 4.11556 39161 ft 493 kts 121°
2026-04-14 11:21 52.77675 4.21185 39178 ft 493 kts 121°
2026-04-14 11:22 52.74027 4.30736 39174 ft 493 kts 121°
2026-04-14 11:22 52.70368 4.40277 39172 ft 493 kts 121°
2026-04-14 11:23 52.66718 4.49759 39172 ft 493 kts 121°
2026-04-14 11:23 52.63044 4.59264 39171 ft 493 kts 121°
2026-04-14 11:24 52.59359 4.68764 39172 ft 493 kts 122°
2026-04-14 11:24 52.55658 4.78266 39165 ft 493 kts 122°
2026-04-14 11:25 52.51946 4.87762 39176 ft 492 kts 122°
2026-04-14 11:25 52.48225 4.97246 39173 ft 492 kts 122°
2026-04-14 11:26 52.44536 5.06611 39169 ft 491 kts 122°
2026-04-14 11:26 52.40809 5.16038 39166 ft 491 kts 122°
2026-04-14 11:27 52.37112 5.25356 39164 ft 490 kts 122°
2026-04-14 11:27 52.33389 5.34703 39166 ft 489 kts 122°
2026-04-14 11:28 52.29663 5.44027 39167 ft 489 kts 122°
2026-04-14 11:28 52.25951 5.53278 39174 ft 488 kts 122°
2026-04-14 11:29 52.22250 5.62470 39175 ft 487 kts 122°
2026-04-14 11:29 52.18534 5.71667 39174 ft 486 kts 123°
2026-04-14 11:30 52.14822 5.80821 39176 ft 485 kts 123°
2026-04-14 11:30 52.11092 5.89985 39173 ft 484 kts 123°
2026-04-14 11:31 52.07370 5.99098 39174 ft 483 kts 123°
2026-04-14 11:31 52.03639 6.08202 39181 ft 482 kts 123°
2026-04-14 11:32 51.99909 6.17268 39171 ft 482 kts 123°
2026-04-14 11:32 51.95816 6.25906 39176 ft 481 kts 134°
2026-04-14 11:33 51.90744 6.32923 39175 ft 481 kts 141°
2026-04-14 11:34 51.82912 6.43164 39175 ft 481 kts 141°
2026-04-14 11:34 51.77701 6.49949 39149 ft 481 kts 141°
2026-04-14 11:34 51.75113 6.53310 38906 ft 480 kts 141°
2026-04-14 11:35 51.72499 6.56700 38668 ft 475 kts 141°
2026-04-14 11:35 51.69928 6.60029 38411 ft 472 kts 141°
2026-04-14 11:35 51.67388 6.63312 38170 ft 471 kts 141°
2026-04-14 11:35 51.64828 6.66616 37683 ft 473 kts 142°
2026-04-14 11:36 51.62263 6.69921 37133 ft 471 kts 141°
2026-04-14 11:36 51.59715 6.73198 36570 ft 471 kts 141°
2026-04-14 11:36 51.57109 6.76545 36016 ft 472 kts 142°
2026-04-14 11:36 51.54505 6.79885 35479 ft 475 kts 141°
2026-04-14 11:37 51.51917 6.83200 34889 ft 478 kts 141°
2026-04-14 11:37 51.49329 6.86509 34240 ft 480 kts 141°
2026-04-14 11:37 51.46746 6.89807 33721 ft 474 kts 142°
2026-04-14 11:37 51.44172 6.93086 33145 ft 474 kts 142°
2026-04-14 11:38 51.41583 6.96379 32599 ft 475 kts 142°
2026-04-14 11:38 51.39019 6.99638 32034 ft 476 kts 141°
2026-04-14 11:38 51.36422 7.02934 31461 ft 477 kts 142°
2026-04-14 11:38 51.33827 7.06223 30896 ft 478 kts 142°
2026-04-14 11:39 51.31201 7.09546 30294 ft 477 kts 142°
2026-04-14 11:39 51.28608 7.12822 29746 ft 477 kts 142°
2026-04-14 11:39 51.25891 7.15820 29175 ft 475 kts 152°
2026-04-14 11:39 51.22978 7.18162 28599 ft 471 kts 154°
2026-04-14 11:40 51.20041 7.20487 28047 ft 465 kts 154°
2026-04-14 11:40 51.17180 7.22754 27497 ft 461 kts 154°
2026-04-14 11:40 51.14287 7.25043 26942 ft 456 kts 154°
2026-04-14 11:40 51.11492 7.27260 26402 ft 451 kts 154°
2026-04-14 11:41 51.08725 7.29532 25867 ft 447 kts 153°
2026-04-14 11:41 51.05978 7.31797 25333 ft 443 kts 153°
2026-04-14 11:41 51.03255 7.34042 24809 ft 439 kts 153°
2026-04-14 11:41 51.00555 7.36268 24270 ft 435 kts 153°
2026-04-14 11:42 50.97883 7.38467 23727 ft 430 kts 153°
2026-04-14 11:42 50.95277 7.40609 23201 ft 426 kts 153°
2026-04-14 11:42 50.92649 7.42767 22676 ft 422 kts 153°
2026-04-14 11:42 50.90050 7.44898 22161 ft 419 kts 153°
2026-04-14 11:43 50.87663 7.46852 21682 ft 417 kts 153°
2026-04-14 11:43 50.85294 7.48789 21216 ft 414 kts 153°
2026-04-14 11:43 50.82736 7.50879 20704 ft 412 kts 153°
2026-04-14 11:43 50.80229 7.52924 20215 ft 409 kts 153°
2026-04-14 11:44 50.77698 7.54987 19705 ft 407 kts 153°
2026-04-14 11:44 50.75196 7.57023 19211 ft 404 kts 153°
2026-04-14 11:44 50.72711 7.59043 18715 ft 401 kts 153°
2026-04-14 11:44 50.70237 7.61052 18235 ft 399 kts 153°
2026-04-14 11:45 50.67794 7.63032 17732 ft 396 kts 153°
2026-04-14 11:45 50.65337 7.65023 17253 ft 393 kts 153°
2026-04-14 11:45 50.62916 7.66981 16765 ft 390 kts 153°
2026-04-14 11:45 50.60519 7.68918 16298 ft 387 kts 153°
2026-04-14 11:46 50.58129 7.70846 15831 ft 385 kts 153°
2026-04-14 11:46 50.55742 7.72769 15374 ft 382 kts 153°
2026-04-14 11:46 50.53415 7.74643 14960 ft 380 kts 153°
2026-04-14 11:46 50.51063 7.76533 14540 ft 378 kts 153°
2026-04-14 11:47 50.48753 7.78388 14110 ft 375 kts 153°
2026-04-14 11:47 50.46411 7.80267 13679 ft 373 kts 154°
2026-04-14 11:47 50.44134 7.82101 13255 ft 370 kts 152°
2026-04-14 11:47 50.41994 7.84370 12842 ft 367 kts 142°
2026-04-14 11:48 50.40017 7.86852 12536 ft 364 kts 142°
2026-04-14 11:48 50.38031 7.89332 12178 ft 362 kts 142°
2026-04-14 11:48 50.36083 7.91758 11853 ft 359 kts 142°
2026-04-14 11:48 50.34134 7.94182 11504 ft 355 kts 142°
2026-04-14 11:49 50.32213 7.96567 11171 ft 348 kts 142°
2026-04-14 11:49 50.30345 7.98883 10839 ft 339 kts 142°
2026-04-14 11:49 50.28525 8.01135 10530 ft 330 kts 142°
2026-04-14 11:49 50.26882 8.03697 10228 ft 338 kts 126°
2026-04-14 11:50 50.25871 8.06949 10161 ft 332 kts 107°
2026-04-14 11:50 50.25299 8.10428 10131 ft 327 kts 104°
2026-04-14 11:50 50.24759 8.13834 10022 ft 325 kts 104°
2026-04-14 11:51 50.23669 8.20642 9649 ft 321 kts 104°
2026-04-14 11:51 50.23124 8.24029 9401 ft 320 kts 104°
2026-04-14 11:51 50.22584 8.27374 9158 ft 319 kts 103°
2026-04-14 11:51 50.22044 8.30707 8904 ft 318 kts 103°
2026-04-14 11:52 50.21496 8.34023 8657 ft 316 kts 105°
2026-04-14 11:52 50.20555 8.37113 8414 ft 315 kts 124°
2026-04-14 11:52 50.19572 8.38819 8249 ft 315 kts 138°
2026-04-14 11:52 50.17037 8.40958 7927 ft 315 kts 162°
2026-04-14 11:53 50.14877 8.41405 7692 ft 310 kts 182°
2026-04-14 11:53 50.12823 8.40760 7462 ft 296 kts 201°
2026-04-14 11:53 50.11099 8.39223 7234 ft 283 kts 219°
2026-04-14 11:53 50.09773 8.36987 7091 ft 281 kts 236°
2026-04-14 11:54 50.08869 8.34266 6856 ft 280 kts 250°
2026-04-14 11:54 50.08192 8.31463 6674 ft 279 kts 251°
2026-04-14 11:54 50.07501 8.28610 6497 ft 280 kts 251°
2026-04-14 11:54 50.06825 8.25829 6326 ft 273 kts 251°
2026-04-14 11:55 50.06154 8.23075 6164 ft 268 kts 251°
2026-04-14 11:55 50.05494 8.20367 5963 ft 268 kts 251°
2026-04-14 11:55 50.04839 8.17684 5714 ft 262 kts 251°
2026-04-14 11:55 50.03959 8.15286 5473 ft 256 kts 226°
2026-04-14 11:56 50.02446 8.13950 5234 ft 250 kts 191°
2026-04-14 11:56 50.00763 8.14072 5054 ft 239 kts 165°
2026-04-14 11:56 49.99147 8.14741 4933 ft 241 kts 159°
2026-04-14 11:56 49.97607 8.15738 4805 ft 241 kts 153°
2026-04-14 11:57 49.96240 8.17214 4667 ft 236 kts 125°
2026-04-14 11:57 49.95612 8.19416 4505 ft 222 kts 98°
2026-04-14 11:57 49.95489 8.21730 4344 ft 208 kts 79°
2026-04-14 11:57 49.95807 8.23897 4178 ft 203 kts 72°
2026-04-14 11:58 49.96204 8.25989 3955 ft 203 kts 69°
2026-04-14 11:58 49.96653 8.28010 3716 ft 192 kts 67°
2026-04-14 11:58 49.97097 8.29919 3469 ft 182 kts 66°
2026-04-14 11:58 49.97527 8.31719 3227 ft 178 kts 66°
2026-04-14 11:59 49.97962 8.33522 2991 ft 178 kts 66°
2026-04-14 11:59 49.98396 8.35324 2750 ft 175 kts 66°
2026-04-14 11:59 49.98806 8.37031 2524 ft 162 kts 65°
2026-04-14 11:59 49.99200 8.38658 2314 ft 160 kts 65°
2026-04-14 12:00 49.99565 8.40181 2141 ft 143 kts 65°
2026-04-14 12:00 49.99915 8.41615 1933 ft 141 kts 65°
2026-04-14 12:00 50.00263 8.43045 1745 ft 140 kts 65°
2026-04-14 12:00 50.00605 8.44461 1552 ft 139 kts 65°
2026-04-14 12:01 50.00939 8.45845 1377 ft 137 kts 65°
2026-04-14 12:01 50.01264 8.47201 1209 ft 130 kts 66°
2026-04-14 12:01 50.01577 8.48507 1015 ft 126 kts 65°
2026-04-14 12:01 50.01883 8.49775 863 ft 124 kts 67°
2026-04-14 12:02 50.02188 8.51019 702 ft 123 kts 67°
2026-04-14 12:02 50.02485 8.52296 514 ft 129 kts 66°
2026-04-14 12:02 50.02798 8.53583 367 ft 127 kts 67°
2026-04-14 12:02 50.03087 8.54786 330 ft 107 kts 67°
2026-04-14 12:03 50.03243 8.55500 333 ft 29 kts 81°
2026-04-14 12:03 50.03234 8.55799 335 ft 13 kts 100°
2026-04-14 12:03 50.03217 8.55889 336 ft 9 kts 130°
2026-04-14 12:03 50.03166 8.55892 336 ft 9 kts 214°
2026-04-14 12:04 50.03129 8.55784 336 ft 14 kts 249°
2026-04-14 12:04 50.03101 8.55667 334 ft 13 kts 249°
2026-04-14 12:04 50.03066 8.55510 335 ft 17 kts 250°
2026-04-14 12:04 50.03018 8.55316 333 ft 21 kts 250°
2026-04-14 12:05 50.02964 8.55091 332 ft 22 kts 249°
2026-04-14 12:05 50.02907 8.54853 331 ft 24 kts 249°
2026-04-14 12:05 50.02845 8.54595 333 ft 26 kts 249°
2026-04-14 12:05 50.02779 8.54324 334 ft 27 kts 249°
2026-04-14 12:06 50.02710 8.54031 332 ft 29 kts 250°
2026-04-14 12:06 50.02652 8.53787 332 ft 18 kts 249°
2026-04-14 12:06 50.02603 8.53687 331 ft 12 kts 214°
2026-04-14 12:06 50.02529 8.53605 332 ft 8 kts 227°
2026-04-14 12:07 50.02501 8.53501 333 ft 12 kts 249°
2026-04-14 12:07 50.02462 8.53341 331 ft 18 kts 248°
2026-04-14 12:07 50.02415 8.53142 331 ft 19 kts 248°
2026-04-14 12:07 50.02367 8.52945 329 ft 14 kts 248°
2026-04-14 12:08 50.02340 8.52851 330 ft 9 kts 226°
2026-04-14 12:08 50.02265 8.52829 330 ft 13 kts 179°
2026-04-14 12:08 50.02179 8.52829 330 ft 9 kts 179°
2026-04-14 12:08 50.02145 8.52853 330 ft 6 kts 103°
2026-04-14 12:09 50.02148 8.52944 332 ft 9 kts 85°
2026-04-14 12:09 50.02154 8.53049 334 ft 7 kts 80°
2026-04-14 12:09 50.02202 8.53108 334 ft 9 kts 55°
2026-04-14 12:09 50.02225 8.53198 335 ft 10 kts 69°
2026-04-14 12:10 50.02248 8.53292 335 ft 0 kts 70°
2026-04-14 12:10 50.02253 8.53316 335 ft 4 kts 75°
2026-04-14 12:10 50.02238 8.53344 336 ft 4 kts 146°
2026-04-14 12:10 50.02217 8.53367 337 ft 0 kts 143°